Weather History for Silver Bay, MN

Change the Weather History Date:

Tuesday, November 20, 2012

  Actual Average Record
Temperature  
Mean Temperature 34 °F -  
Max Temperature 44 °F 32 °F 51 °F (2003)
Min Temperature 23 °F 17 °F 1 °F (1996)
Degree Days  
Heating Degree Days 32    
Moisture  
Dew Point 28 °F    
Average Humidity 82    
Maximum Humidity 93    
Minimum Humidity 57    
Precipitation  
Precipitation 0.00 in - - ()
Sea Level Pressure  
Sea Level Pressure 30.07 in    
Wind  
Wind Speed 1 mph (SSW)    
Max Wind Speed 6 mph    
Max Gust Speed -    
Visibility 6 miles    
Events Fog    
Averages and records for this station are not official NWS values.
T = Trace of Precipitation, MM = Missing Value Source: NWS Daily Summary

Daily Weather History Graph

Daily Weather History Graph

Search for Another Location

Airport:

Trip Planner

Search our weather history database for the weather conditions in past years. The results will help you decide how hot, cold, wet, or windy it might be!

Date:

Astronomy

Nov. 20, 2012 Rise Set
Actual Time 7:17 AM CST 4:24 PM CST
Civil Twilight 6:43 AM CST 4:58 PM CST
Nautical Twilight 6:06 AM CST 5:36 PM CST
Astronomical Twilight 5:29 AM CST 6:12 PM CST
Moon 12:37 PM CST (11/20) No Moon Set
Length of Visible Light 10h 14m
Length of Day
9h 07m
First Quarter, 51% of the Moon is Illuminated
Nov 20
First Quarter
Nov 28
Full
Dec 6
Last Quarter
Dec 13
New
Dec 19
First Quarter

Hourly Weather History & Observations

Time (CST) Temp. Windchill Dew Point Humidity Pressure Visibility Wind Dir Wind Speed Gust Speed Precip Events Conditions
12:13 AM 33.8 °F - 30.2 °F 87% 30.03 in 10.0 mi Calm Calm - N/A   Clear
12:33 AM 33.8 °F - 30.2 °F 87% 30.02 in 10.0 mi Calm Calm - N/A   Clear
12:53 AM 33.8 °F - 30.2 °F 87% 30.02 in 10.0 mi Calm Calm - N/A   Clear
1:13 AM 33.8 °F - 30.2 °F 87% 30.02 in 10.0 mi Calm Calm - N/A   Clear
1:33 AM 33.8 °F 29.6 °F 30.2 °F 87% 30.03 in 10.0 mi North 4.6 mph - N/A   Clear
1:53 AM 33.8 °F - 30.2 °F 87% 30.04 in 10.0 mi Calm Calm - N/A   Clear
2:13 AM 33.8 °F 29.6 °F 30.2 °F 87% 30.05 in 10.0 mi NNW 4.6 mph - N/A   Clear
2:33 AM 33.8 °F - 30.2 °F 87% 30.04 in 10.0 mi Calm Calm - N/A   Clear
2:53 AM 30.2 °F - 28.4 °F 93% 30.05 in 7.0 mi Calm Calm - N/A   Clear
3:13 AM 30.2 °F 25.4 °F 28.4 °F 93% 30.05 in 7.0 mi North 4.6 mph - N/A   Clear
3:33 AM 30.2 °F - 28.4 °F 93% 30.05 in 7.0 mi Calm Calm - N/A   Clear
3:53 AM 30.2 °F - 28.4 °F 93% 30.05 in 7.0 mi Calm Calm - N/A   Clear
4:13 AM 28.4 °F - 24.8 °F 86% 30.05 in 3.0 mi Calm Calm - N/A   Clear
4:33 AM 28.4 °F - 26.6 °F 93% 30.05 in 3.0 mi Calm Calm - N/A   Clear
4:53 AM 26.6 °F - 23.0 °F 86% 30.06 in 0.2 mi Calm Calm - N/A Fog Light Freezing Fog
5:13 AM 24.8 °F - 21.2 °F 86% 30.07 in 1.0 mi Calm Calm - N/A   Mist
5:33 AM 24.8 °F - 21.2 °F 86% 30.07 in 2.5 mi Calm Calm - N/A   Clear
5:53 AM 24.8 °F - 21.2 °F 86% 30.07 in 4.0 mi Calm Calm - N/A   Clear
6:13 AM 24.8 °F - 21.2 °F 86% 30.07 in 4.0 mi Calm Calm - N/A   Clear
6:33 AM 24.8 °F - 21.2 °F 86% 30.08 in 4.0 mi Calm Calm - N/A   Clear
6:53 AM 23.0 °F - 21.2 °F 93% 30.09 in 5.0 mi Calm Calm - N/A   Clear
7:13 AM 23.0 °F - 21.2 °F 93% 30.10 in 5.0 mi Calm Calm - N/A   Clear
7:33 AM 24.8 °F 17.9 °F 21.2 °F 86% 30.10 in 5.0 mi NW 5.8 mph - N/A   Clear
7:53 AM 28.4 °F 23.3 °F 26.6 °F 93% 30.11 in 7.0 mi NNW 4.6 mph - N/A   Clear
8:13 AM 30.2 °F 26.7 °F 26.6 °F 86% 30.12 in 10.0 mi NNW 3.5 mph - N/A   Clear
8:33 AM 32.0 °F - 28.4 °F 87% 30.11 in 10.0 mi Calm Calm - N/A   Clear
8:53 AM 33.8 °F - 28.4 °F 81% 30.11 in 10.0 mi Calm Calm - N/A   Clear
9:13 AM 33.8 °F - 28.4 °F 81% 30.10 in 10.0 mi Calm Calm - N/A   Clear
9:33 AM 35.6 °F - 28.4 °F 75% 30.10 in 10.0 mi Calm Calm - N/A   Clear
9:53 AM 37.4 °F - 30.2 °F 75% 30.11 in 10.0 mi Calm Calm - N/A   Clear
10:13 AM 39.2 °F - 28.4 °F 65% 30.11 in 10.0 mi Calm Calm - N/A   Clear
10:33 AM 41.0 °F - 30.2 °F 65% 30.12 in 10.0 mi Calm Calm - N/A   Clear
10:53 AM 42.8 °F - 30.2 °F 61% 30.11 in 10.0 mi Calm Calm - N/A   Clear
11:13 AM 42.8 °F - 30.2 °F 61% 30.12 in 10.0 mi Calm Calm - N/A   Clear
11:33 AM 44.6 °F - 30.2 °F 57% 30.11 in 10.0 mi Calm Calm - N/A   Clear
11:53 AM 44.6 °F - 30.2 °F 57% 30.11 in 10.0 mi Calm Calm - N/A   Clear
12:13 PM 42.8 °F 41.1 °F 28.4 °F 57% 30.11 in 10.0 mi SSE 3.5 mph - N/A   Clear
12:33 PM 42.8 °F 41.1 °F 28.4 °F 57% 30.10 in 10.0 mi South 3.5 mph - N/A   Clear
1:13 PM 42.8 °F 39.3 °F 28.4 °F 57% 30.09 in 10.0 mi SSE 5.8 mph - N/A   Clear
1:34 PM 42.8 °F 40.1 °F 28.4 °F 57% 30.09 in 10.0 mi South 4.6 mph - N/A   Clear
1:53 PM 42.8 °F - 28.4 °F 57% 30.08 in 10.0 mi Calm Calm - N/A   Clear
2:13 PM 41.0 °F 38.0 °F 30.2 °F 65% 30.08 in 10.0 mi SSE 4.6 mph - N/A   Clear
2:33 PM 39.2 °F 35.9 °F 30.2 °F 70% 30.08 in 10.0 mi South 4.6 mph - N/A   Clear
2:53 PM 37.4 °F 33.8 °F 30.2 °F 75% 30.08 in 10.0 mi South 4.6 mph - N/A   Clear
3:13 PM 37.4 °F 34.9 °F 30.2 °F 75% 30.08 in 10.0 mi South 3.5 mph - N/A   Clear
3:33 PM 37.4 °F 34.9 °F 30.2 °F 75% 30.09 in 7.0 mi South 3.5 mph - N/A   Scattered Clouds
3:53 PM 35.6 °F - 30.2 °F 81% 30.08 in 7.0 mi Calm Calm - N/A   Mostly Cloudy
4:13 PM 33.8 °F - 28.4 °F 81% 30.08 in 7.0 mi Calm Calm - N/A   Scattered Clouds
4:33 PM 32.0 °F - 28.4 °F 87% 30.08 in 5.0 mi Calm Calm - N/A   Scattered Clouds
4:53 PM 32.0 °F - 28.4 °F 87% 30.07 in 4.0 mi Calm Calm - N/A   Mostly Cloudy
5:13 PM 33.8 °F - 30.2 °F 87% 30.08 in 3.0 mi Calm Calm - N/A   Overcast
5:33 PM 33.8 °F - 30.2 °F 87% 30.09 in 1.0 mi Calm Calm - N/A   Overcast
5:53 PM 33.8 °F - 30.2 °F 87% 30.07 in 0.8 mi Calm Calm - N/A   Overcast
6:13 PM 33.8 °F - 30.2 °F 87% 30.07 in 0.2 mi Calm Calm - N/A Fog Fog
6:33 PM 33.8 °F - 30.2 °F 87% 30.07 in 0.2 mi Calm Calm - N/A Fog Fog
6:53 PM 33.8 °F - 30.2 °F 87% 30.07 in 0.2 mi Calm Calm - N/A Fog Fog
7:13 PM 33.8 °F - 30.2 °F 87% 30.06 in 0.2 mi Calm Calm - N/A Fog Fog
7:33 PM 33.8 °F - 30.2 °F 87% 30.06 in 0.2 mi Calm Calm - N/A Fog Fog
7:53 PM 33.8 °F - 30.2 °F 87% 30.06 in 0.2 mi Calm Calm - N/A Fog Fog
8:13 PM 32.0 °F - 30.2 °F 93% 30.05 in 0.2 mi Calm Calm - N/A Fog Fog
8:33 PM 32.0 °F - 30.2 °F 93% 30.06 in 0.2 mi Calm Calm - N/A Fog Fog
8:53 PM 32.0 °F - 28.4 °F 87% 30.06 in 0.5 mi Calm Calm - N/A Fog Fog
9:13 PM 32.0 °F - 30.2 °F 93% 30.06 in 0.2 mi Calm Calm - N/A Fog Fog
9:33 PM 32.0 °F - 28.4 °F 87% 30.05 in 0.2 mi Calm Calm - N/A Fog Fog
9:53 PM 32.0 °F - 28.4 °F 87% 30.06 in 0.2 mi Calm Calm - N/A Fog Fog
10:13 PM 30.2 °F - 28.4 °F 93% 30.05 in 0.2 mi Calm Calm - N/A Fog Light Freezing Fog
10:33 PM 30.2 °F - 28.4 °F 93% 30.04 in 0.2 mi Calm Calm - N/A Fog Light Freezing Fog
10:53 PM 30.2 °F - 28.4 °F 93% 30.04 in 0.2 mi Calm Calm - N/A Fog Light Freezing Fog
11:13 PM 30.2 °F - 28.4 °F 93% 30.03 in 0.2 mi Calm Calm - N/A Fog Light Freezing Fog
11:33 PM 30.2 °F - 28.4 °F 93% 30.03 in 0.2 mi Calm Calm - N/A Fog Light Freezing Fog
11:53 PM 30.2 °F - 28.4 °F 93% 30.02 in 0.2 mi Calm Calm - N/A Fog Light Freezing Fog